This demonstration page uses our WeatherBlox Daily Observations layout. Learn more.

Left ArrowRight Arrow

Hourly Observations for February 25, 2017

Temp ( °F °C ) Dew Point ( °F °C ) Humidity (%) Winds ( mph kmh ) Pressure ( in mb ) Visibility ( mi km ) Precip ( " mm )
12:53 am 00:53 Mostly Cloudy 51 10.6 43 6.1 74 74 WNW 20 31 29.64 1004 10 16 N/A
1:53 am 01:53 Mostly Cloudy 49 9.4 41 5 74 74 WNW 10 17 29.66 1004 10 16 N/A
2:53 am 02:53 Cloudy 47 8.3 36 2.2 66 66 W 14 22 29.65 1004 10 16 N/A
3:53 am 03:53 Clear 44 6.7 34 1.1 68 68 W 9 15 29.67 1005 10 16 N/A
4:53 am 04:53 Mostly Clear 42 5.6 33 0.6 71 71 W 6 9 29.69 1005 10 16 N/A
5:53 am 05:53 Cloudy 43 6.1 34 1.1 71 71 SW 5 7 29.68 1005 10 16 N/A
6:53 am 06:53 Mostly Cloudy with Light Rain 41 5 34 1.1 76 76 W 12 19 29.70 1006 9 14 N/A
7:04 am 07:04 Cloudy with Light Rain 41 5 34 1.1 76 76 W 10 17 29.74 1007 10 16 N/A
7:53 am 07:53 Cloudy 38 3.3 27 -2.8 65 65 WSW 18 30 29.75 1008 10 16 N/A
8:53 am 08:53 Cloudy 37 2.8 25 -3.9 62 62 W 17 28 29.78 1009 10 16 N/A
9:53 am 09:53 Cloudy 37 2.8 26 -3.3 65 65 W 17 28 29.81 1009 10 16 N/A
10:02 am 10:02 Windy with Snow Likely 35 1.7 28 -2.2 76 76 W 22 35 29.85 1011 2 3 0.01 0.25
10:09 am 10:09 Cloudy with Light Snow 34 1.1 29 -1.7 82 82 W 17 28 29.85 1011 1 1 0.01 0.25
10:22 am 10:22 Cloudy with Light Snow 34 1.1 30 -1.1 85 85 W 15 24 29.85 1011 2 3 0.01 0.25
10:24 am 10:24 Cloudy with Light Snow 35 1.7 30 -1.1 82 82 W 14 22 29.85 1011 3 5 0.01 0.25
10:53 am 10:53 Cloudy 35 1.7 27 -2.8 72 72 W 21 33 29.85 1011 10 16 0.02 0.51
11:39 am 11:39 Cloudy 35 1.7 27 -2.8 72 72 W 15 24 29.88 1012 10 16 N/A
11:53 am 11:53 Cloudy 35 1.7 26 -3.3 70 70 W 15 24 29.88 1012 10 16 N/A
12:48 pm 12:48 Cloudy 34 1 21 -6 60 60 W 15 24 29.94 1014 10 16 N/A
12:53 pm 12:53 Cloudy 34 1.1 21 -6.1 59 59 W 15 24 29.91 1013 10 16 N/A
1:53 pm 13:53 Cloudy 32 undefined 21 -6.1 64 64 W 17 28 29.93 1013 10 16 N/A
2:53 pm 14:53 Cloudy 32 undefined 19 -7.2 59 59 W 20 31 29.96 1015 10 16 N/A
3:53 pm 15:53 Cloudy 32 undefined 19 -7.2 59 59 W 13 20 29.98 1015 10 16 N/A
4:53 pm 16:53 Cloudy 32 undefined 19 -7.2 59 59 W 17 28 30.00 1016 10 16 N/A
5:53 pm 17:53 Cloudy 32 undefined 19 -7.2 59 59 W 12 19 30.02 1017 10 16 N/A
6:53 pm 18:53 Cloudy 32 undefined 20 -6.7 61 61 W 9 15 30.04 1017 10 16 N/A
7:53 pm 19:53 Cloudy 33 0.6 19 -7.2 56 56 W 8 13 30.05 1018 10 16 N/A
8:53 pm 20:53 Cloudy 32 undefined 18 -7.8 56 56 WSW 9 15 30.07 1018 10 16 N/A
9:53 pm 21:53 Mostly Clear 31 -0.6 18 -7.8 59 59 WSW 8 13 30.07 1018 10 16 N/A
10:53 pm 22:53 Clear 28 -2.2 18 -7.8 66 66 WSW 5 7 30.09 1019 10 16 N/A
11:53 pm 23:53 Clear 27 -2.8 18 -7.8 69 69 WSW 5 7 30.10 1019 10 16 N/A

Powered by AerisWeather